Probability
0 0 0 1 0 1 2 2 1 0 0 0 0 0 0 0 0 0 0 0 0 0 0 0 0 0 0 0 0 0 0 0 0 0 0 0 1 0
0 0 0 1 0 1 1 1 0 0 0 0 0 0 0 0 0 0 0 0 0 0 0 0 0 0 0 0 0 0 0 0 0 0 0 0 1 1
0 0 0 0 0 0 0 0 0 0 0 0 0 0 0 0 0 0 0 0 0 0 0 0 0 0 0 0 0 0 0 0 0 0 0 0 1 1
0 0 0 0 0 0 0 0 0 0 0 0 0 0 0 0 0 0 0 0 0 0 0 0 0 0 0 0 0 0 0 0 0 0 0 0 0 1
0 0 0 0 0 0 0 0 0 0 0 0 0 0 0 0 0 0 0 0 0 0 0 0 0 0 0 0 0 0 0 0 0 0 0 0 0 0
0 0 0 0 0 0 0 0 0 0 0 0 0 0 0 0 0 0 0 0 0 0 0 0 0 0 0 0 0 0 0 0 0 0 0 0 0 0
0 0 0 0 0 0 0 0 0 0 0 0 0 0 0 0 0 0 0 0 0 0 0 0 0 0 0 0 0 0 0 0 0 0 0 0 0 0
0 0 0 0 0 0 0 0 0 0 0 0 0 0 0 0 0 0 0 0 0 0 0 0 0 0 0 0 0 0 0 0 0 0 0 0 0 0
0 0 0 0 0 0 0 0 0 0 0 0 0 0 0 0 0 0 0 0 0 0 0 0 0 0 0 0 0 0 0 0 0 0 0 0 0 0
0 0 0 0 0 0 0 0 0 0 0 0 0 0 0 0 0 0 0 0 0 0 0 0 0 0 0 0 0 0 0 0 0 0 0 0 0 0
0 0 0 0 0 0 0 0 0 0 0 0 0 0 0 0 0 0 0 0 0 0 0 0 0 0 0 0 0 0 0 0 0 0 0 0 0 0
0 0 0 0 0 0 0 0 0 0 0 0 0 0 0 0 0 0 0 0 0 0 0 0 0 0 0 0 0 0 0 0 0 0 0 0 0 0
0 0 0 0 0 0 0 0 0 0 0 0 0 0 0 0 0 0 0 0 0 0 0 0 0 0 0 0 0 0 0 0 0 0 0 0 0 0
0 0 0 0 0 0 0 0 0 0 0 0 0 0 0 0 0 0 0 0 0 0 0 0 0 0 0 0 0 0 0 0 0 0 0 0 0 0
0 0 0 0 0 0 0 0 0 0 0 0 0 0 0 0 0 0 0 0 0 0 0 0 0 0 0 0 0 0 0 0 0 0 0 0 0 0
0 0 0 0 0 0 0 0 0 0 0 0 0 0 0 0 0 0 0 0 0 0 0 0 0 0 0 0 0 0 0 0 0 0 0 0 0 0
0 0 0 0 0 0 0 0 0 0 0 0 0 0 0 0 0 0 0 0 0 0 0 0 0 0 0 0 0 0 0 0 0 0 0 0 0 0
0 0 0 0 0 0 0 0 0 0 0 0 0 0 0 0 0 0 0 0 0 0 0 0 0 0 0 0 0 0 0 0 0 0 0 0 0 0
0 0 0 0 0 0 0 0 0 0 0 0 0 0 0 0 0 0 0 0 0 0 0 0 0 0 0 0 0 0 0 0 0 0 0 0 0 0
0 0 0 0 0 0 0 0 0 0 0 0 0 0 0 0 0 0 0 0 0 0 0 0 0 0 0 0 0 0 0 0 0 0 0 0 0 0
0 0 0 0 0 0 0 0 0 0 0 0 0 0 0 0 0 0 0 0 0 0 0 0 0 0 0 0 0 0 0 0 0 0 0 0 0 0
0 0 0 0 0 0 0 0 0 0 0 0 0 0 0 0 0 0 0 0 0 0 0 0 0 0 0 0 0 0 0 0 0 0 0 0 0 0
0 0 0 0 0 0 0 0 0 0 0 0 0 0 0 0 0 0 0 0 0 0 0 0 0 0 0 0 0 0 0 0 0 0 0 0 0 0
Wind_Speed
4 4 3 3 3 3 3 3 4 6 6 3 2 3 3 3 6 5 5 9 12 12 12 12 12 11 11 11 11 11 10 9 9 9 10 10 10 10
3 4 4 3 3 3 4 4 4 5 7 4 3 3 4 5 7 5 5 10 11 11 11 11 11 10 10 10 10 10 9 9 9 10 10 10 10 9
3 4 4 4 3 3 3 4 4 4 7 6 3 3 4 5 5 5 5 5 5 10 11 10 9 9 9 9 9 9 9 10 10 10 10 9 9 9
4 4 4 4 4 3 4 5 5 5 5 8 5 4 5 5 5 5 5 4 4 8 10 9 9 8 8 7 7 8 8 8 8 9 9 9 10 9
4 4 4 4 5 4 4 5 4 5 4 5 6 4 4 4 4 5 5 4 4 6 7 8 8 7 7 7 7 7 7 7 8 9 9 9 10 10
4 4 4 4 5 5 5 5 4 4 4 5 5 5 4 4 3 3 4 3 4 4 5 5 6 7 7 7 7 7 7 7 7 8 8 8 8 8
4 4 4 5 6 5 4 3 3 4 4 4 5 4 4 3 3 3 5 4 4 3 3 3 3 3 4 6 7 7 6 6 6 7 7 7 7 8
4 4 5 5 6 8 9 7 6 5 4 4 4 5 5 4 4 4 4 4 4 2 2 4 2 3 3 3 5 7 6 6 7 7 7 7 7 7
4 4 4 5 6 4 6 8 7 8 8 6 6 6 5 5 5 5 4 5 5 3 3 4 2 4 3 4 7 7 7 7 7 7 7 7 7 8
4 4 5 5 5 5 4 5 5 5 6 5 6 6 6 5 5 5 5 5 4 3 2 3 3 3 4 3 6 6 6 6 6 6 6 7 8 8
4 5 5 5 8 9 5 5 5 5 6 8 8 8 9 9 6 3 3 3 4 3 1 2 2 3 3 3 4 6 6 6 6 6 7 7 7 7
4 4 7 7 9 9 5 5 6 5 4 5 6 7 6 6 7 4 3 4 4 3 2 2 2 2 3 2 2 2 3 5 7 7 7 7 6 3
4 4 4 9 10 10 8 5 6 6 4 4 4 4 3 3 3 3 3 4 4 4 3 2 2 2 2 3 3 2 2 2 3 4 5 6 6 4
4 4 4 9 10 10 7 7 8 6 3 2 3 3 3 3 3 4 4 4 4 5 4 3 3 3 3 3 4 3 2 2 2 2 2 4 5 6
4 7 9 9 9 7 8 9 6 3 2 3 3 3 3 4 3 3 3 3 3 3 4 4 4 3 3 4 4 3 3 2 2 2 2 2 2 2
4 6 8 8 6 7 6 5 3 3 3 3 3 3 3 3 3 3 3 3 3 3 3 3 4 4 3 3 3 4 2 2 2 2 2 2 2 2
4 3 3 3 3 3 3 3 3 3 3 3 3 3 3 3 3 3 3 2 3 3 3 3 2 2 3 3 3 3 3 3 2 2 2 3 3 3
5 3 3 3 3 4 4 3 3 3 3 3 3 3 4 3 4 3 3 3 3 3 3 3 2 2 2 2 3 3 2 3 2 2 2 3 3 2
3 3 3 3 4 4 3 3 4 4 3 3 4 4 4 3 3 3 3 3 3 3 3 2 2 2 2 3 3 2 2 2 2 2 2 3 3 3
2 3 3 4 4 4 4 4 4 4 3 3 4 4 3 3 4 4 3 3 3 3 3 2 2 2 3 3 3 3 3 3 2 2 2 2 2 4
3 3 4 4 4 4 4 4 4 4 4 4 3 4 4 4 4 4 3 5 4 3 3 3 3 4 2 1 1 2 2 2 2 2 2 2 2 2
4 4 4 4 4 4 4 4 4 4 4 4 4 3 3 3 4 4 4 3 3 3 3 3 2 1 1 1 2 3 2 2 2 3 3 3 2 1
4 4 4 4 4 4 4 4 4 4 4 4 3 3 3 3 3 3 3 3 3 3 3 2 2 1 1 1 2 2 2 2 2 2 2 3 2 3
Wind_Direction
257 253 249 247 243 246 244 236 255 281 283 268 265 262 272 271 279 274 267 274 277 277 279 279 277 273 271 269 267 265 264 264 262 262 261 261 265 268
262 263 255 257 255 249 244 245 244 257 273 276 263 275 282 287 290 282 270 284 282 281 279 278 276 273 269 268 263 263 262 261 261 260 259 258 261 267
269 270 267 260 256 257 251 249 252 253 268 283 274 278 271 278 290 282 273 268 270 280 281 280 278 274 272 265 258 258 261 260 259 259 256 257 262 269
273 268 272 272 264 261 255 253 253 251 256 276 284 285 278 279 284 286 287 282 272 278 279 279 277 274 273 266 261 261 261 261 260 260 257 258 259 264
276 271 273 271 268 264 259 256 256 258 252 264 280 283 282 287 296 296 292 282 284 287 284 280 277 279 278 273 265 263 264 264 263 261 258 258 260 264
283 275 272 267 264 265 263 259 259 262 261 266 274 281 282 283 284 293 300 294 290 293 288 288 287 283 279 277 272 265 263 264 265 264 261 261 260 260
297 292 280 281 286 285 282 275 265 264 269 270 278 284 285 297 291 284 290 299 291 268 280 280 276 267 266 270 271 265 264 263 262 266 266 263 256 256
299 299 295 292 297 299 299 294 283 275 276 272 277 279 283 284 282 280 284 295 291 278 282 287 266 265 265 251 264 265 264 264 266 270 269 266 260 255
293 296 297 300 297 283 293 296 289 285 280 273 274 276 279 280 276 272 268 272 275 283 288 286 281 275 273 272 275 270 267 264 266 267 270 275 272 264
288 288 288 291 290 287 283 284 281 281 280 269 264 270 273 275 260 261 264 273 285 285 246 268 282 283 293 279 278 274 275 274 269 266 268 272 273 269
291 290 289 284 296 300 290 280 282 282 288 286 285 287 287 288 288 285 280 280 288 287 251 248 275 298 295 280 280 284 286 282 275 272 271 268 274 273
296 292 296 300 303 302 286 275 278 284 290 294 293 295 291 289 290 272 263 272 285 279 243 237 268 305 301 285 274 281 282 281 279 276 271 268 273 269
296 296 298 312 313 308 300 282 282 287 274 275 284 290 295 291 289 284 271 256 261 262 246 234 253 258 254 286 294 279 264 271 274 269 266 268 271 260
299 300 304 315 316 316 308 308 306 302 285 281 285 291 294 293 290 283 276 267 260 262 256 239 242 238 243 263 279 287 278 266 265 271 273 273 272 267
302 311 316 320 320 316 317 319 318 313 302 294 290 289 289 286 288 291 288 284 285 282 268 255 244 242 239 245 264 275 285 280 265 259 266 271 267 265
311 313 320 326 324 322 322 324 321 309 303 291 292 291 293 292 286 288 293 296 300 305 304 282 263 241 242 252 251 266 265 263 265 256 267 271 270 252
311 306 316 320 324 325 323 321 318 315 308 298 295 296 294 291 293 296 290 290 281 290 309 323 317 288 258 244 256 261 263 264 263 262 261 276 272 252
324 315 317 317 314 313 314 315 312 306 301 295 294 294 295 295 299 301 296 284 282 285 289 299 311 316 316 303 250 248 259 267 270 260 246 260 279 272
334 317 311 309 305 304 306 305 303 302 301 298 297 296 295 295 294 295 294 292 286 285 287 289 288 274 279 293 300 250 246 272 276 270 250 250 270 276
316 306 302 302 301 299 297 297 298 302 302 298 298 298 295 292 290 290 287 286 289 293 297 298 283 264 251 261 277 288 272 257 252 265 272 271 276 284
314 308 303 301 300 297 294 292 290 291 294 295 293 295 296 292 288 285 282 287 289 287 286 286 283 287 279 261 281 296 302 287 261 255 266 277 293 311
313 308 306 305 304 300 296 294 293 294 295 291 290 291 292 289 288 286 284 285 286 286 287 293 304 310 276 239 267 288 311 330 332 323 289 259 234 240
314 312 309 306 303 299 296 294 293 293 292 292 295 295 293 293 292 289 289 285 287 290 295 301 315 320 289 260 267 290 313 327 338 352 343 345 329 286